Year,Month,Day,Hour,Minute,Value (Times are PST for temperature in C)
2015,11,12,00,00,2.70
2015,11,12,00,01,2.70
2015,11,12,00,02,2.70
2015,11,12,00,03,2.70
2015,11,12,00,04,2.70
2015,11,12,00,05,2.70
2015,11,12,00,06,2.70
2015,11,12,00,07,2.70
2015,11,12,00,08,2.60
2015,11,12,00,09,2.60
2015,11,12,00,10,2.60
2015,11,12,00,11,2.60
2015,11,12,00,12,2.60
2015,11,12,00,13,2.60
2015,11,12,00,14,2.60
2015,11,12,00,15,2.60
2015,11,12,00,16,2.50
2015,11,12,00,17,2.50
2015,11,12,00,18,2.50
2015,11,12,00,19,2.50
2015,11,12,00,20,2.50
2015,11,12,00,21,2.50
2015,11,12,00,22,2.40
2015,11,12,00,23,2.40
2015,11,12,00,24,2.40
2015,11,12,00,25,2.40
2015,11,12,00,26,2.40
2015,11,12,00,27,2.40
2015,11,12,00,28,2.40
2015,11,12,00,29,2.40
2015,11,12,00,30,2.40
2015,11,12,00,31,2.40
2015,11,12,00,32,2.40
2015,11,12,00,33,2.40
2015,11,12,00,34,2.40
2015,11,12,00,35,2.40
2015,11,12,00,36,2.40
2015,11,12,00,37,2.40
2015,11,12,00,38,2.40
2015,11,12,00,39,2.40
2015,11,12,00,40,2.40
2015,11,12,00,41,2.40
2015,11,12,00,42,2.40
2015,11,12,00,43,2.40
2015,11,12,00,44,2.40
2015,11,12,00,45,2.40
2015,11,12,00,46,2.30
2015,11,12,00,47,2.30
2015,11,12,00,48,2.30
2015,11,12,00,49,2.30
2015,11,12,00,50,2.30
2015,11,12,00,51,2.30
2015,11,12,00,52,2.30
2015,11,12,00,53,2.30
2015,11,12,00,54,2.30
2015,11,12,00,55,2.30
2015,11,12,00,56,2.30
2015,11,12,00,57,2.30
2015,11,12,00,58,2.30
2015,11,12,00,59,2.30
2015,11,12,01,00,2.30
2015,11,12,01,01,2.30
2015,11,12,01,02,2.30
2015,11,12,01,03,2.30
2015,11,12,01,04,2.30
2015,11,12,01,05,2.30
2015,11,12,01,06,2.30
2015,11,12,01,07,2.30
2015,11,12,01,08,2.30
2015,11,12,01,09,2.30
2015,11,12,01,10,2.30
2015,11,12,01,11,2.30
2015,11,12,01,12,2.30
2015,11,12,01,13,2.30
2015,11,12,01,14,2.20
2015,11,12,01,15,2.20
2015,11,12,01,16,2.20
2015,11,12,01,17,2.20
2015,11,12,01,18,2.20
2015,11,12,01,19,2.20
2015,11,12,01,20,2.20
2015,11,12,01,21,2.20
2015,11,12,01,22,2.20
2015,11,12,01,23,2.20
2015,11,12,01,24,2.20
2015,11,12,01,25,2.20
2015,11,12,01,26,2.20
2015,11,12,01,27,2.20
2015,11,12,01,28,2.20
2015,11,12,01,29,2.20
2015,11,12,01,30,2.20
2015,11,12,01,31,2.20
2015,11,12,01,32,2.20
2015,11,12,01,33,2.20
2015,11,12,01,34,2.20
2015,11,12,01,35,2.20
2015,11,12,01,36,2.20
2015,11,12,01,37,2.20
2015,11,12,01,38,2.20
2015,11,12,01,39,2.20
2015,11,12,01,40,2.20
2015,11,12,01,41,2.20
2015,11,12,01,42,2.20
2015,11,12,01,43,2.20
2015,11,12,01,44,2.20
2015,11,12,01,45,2.20
2015,11,12,01,46,2.20
2015,11,12,01,47,2.20
2015,11,12,01,48,2.20
2015,11,12,01,49,2.20
2015,11,12,01,50,2.20
2015,11,12,01,51,2.20
2015,11,12,01,52,2.20
2015,11,12,01,53,2.20
2015,11,12,01,54,2.20
2015,11,12,01,55,2.20
2015,11,12,01,56,2.20
2015,11,12,01,57,2.30
2015,11,12,01,58,2.30
2015,11,12,01,59,2.30
2015,11,12,02,00,2.30
2015,11,12,02,01,2.30
2015,11,12,02,02,2.30
2015,11,12,02,03,2.30
2015,11,12,02,04,2.30
2015,11,12,02,05,2.40
2015,11,12,02,06,2.40
2015,11,12,02,07,2.40
2015,11,12,02,08,2.40
2015,11,12,02,09,2.40
2015,11,12,02,10,2.40
2015,11,12,02,11,2.40
2015,11,12,02,12,2.40
2015,11,12,02,13,2.50
2015,11,12,02,14,2.50
2015,11,12,02,15,2.50
2015,11,12,02,16,2.50
2015,11,12,02,17,2.50
2015,11,12,02,18,2.50
2015,11,12,02,19,2.50
2015,11,12,02,20,2.50
2015,11,12,02,21,2.50
2015,11,12,02,22,2.50
2015,11,12,02,23,2.50
2015,11,12,02,24,2.50
2015,11,12,02,25,2.50
2015,11,12,02,26,2.50
2015,11,12,02,27,2.60
2015,11,12,02,28,2.60
2015,11,12,02,29,2.60
2015,11,12,02,30,2.60
2015,11,12,02,31,2.60
2015,11,12,02,32,2.70
2015,11,12,02,33,2.70
2015,11,12,02,34,2.70
2015,11,12,02,35,2.70
2015,11,12,02,36,2.70
2015,11,12,02,37,2.70
2015,11,12,02,38,2.70
2015,11,12,02,39,2.70
2015,11,12,02,40,2.80
2015,11,12,02,41,2.80
2015,11,12,02,42,2.80
2015,11,12,02,43,2.80
2015,11,12,02,44,2.80
2015,11,12,02,45,2.80
2015,11,12,02,46,2.80
2015,11,12,02,47,2.80
2015,11,12,02,48,2.90
2015,11,12,02,49,2.90
2015,11,12,02,50,2.90
2015,11,12,02,51,2.90
2015,11,12,02,52,2.90
2015,11,12,02,53,2.90
2015,11,12,02,54,2.90
2015,11,12,02,55,2.90
2015,11,12,02,56,2.90
2015,11,12,02,57,2.90
2015,11,12,02,58,2.90
2015,11,12,02,59,2.90
2015,11,12,03,00,2.90
2015,11,12,03,01,2.90
2015,11,12,03,02,2.90
2015,11,12,03,03,2.90
2015,11,12,03,04,2.90
2015,11,12,03,05,3.00
2015,11,12,03,06,3.10
2015,11,12,03,07,3.10
2015,11,12,03,08,3.10
2015,11,12,03,09,3.10
2015,11,12,03,10,3.10
2015,11,12,03,11,3.10
2015,11,12,03,12,3.10
2015,11,12,03,13,3.20
2015,11,12,03,14,3.20
2015,11,12,03,15,3.20
2015,11,12,03,16,3.20
2015,11,12,03,17,3.20
2015,11,12,03,18,3.20
2015,11,12,03,19,3.20
2015,11,12,03,20,3.20
2015,11,12,03,21,3.20
2015,11,12,03,22,3.20
2015,11,12,03,23,3.20
2015,11,12,03,24,3.30
2015,11,12,03,25,3.30
2015,11,12,03,26,3.30
2015,11,12,03,27,3.30
2015,11,12,03,28,3.30
2015,11,12,03,29,3.30
2015,11,12,03,30,3.30
2015,11,12,03,31,3.30
2015,11,12,03,32,3.30
2015,11,12,03,33,3.30
2015,11,12,03,34,3.30
2015,11,12,03,35,3.40
2015,11,12,03,36,3.40
2015,11,12,03,37,3.40
2015,11,12,03,38,3.40
2015,11,12,03,39,3.40
2015,11,12,03,40,3.40
2015,11,12,03,41,3.40
2015,11,12,03,42,3.40
2015,11,12,03,43,3.40
2015,11,12,03,44,3.40
2015,11,12,03,45,3.40
2015,11,12,03,46,3.40
2015,11,12,03,47,3.40
2015,11,12,03,48,3.40
2015,11,12,03,49,3.40
2015,11,12,03,50,3.40
2015,11,12,03,51,3.40
2015,11,12,03,52,3.40
2015,11,12,03,53,3.50
2015,11,12,03,54,3.50
2015,11,12,03,55,3.50
2015,11,12,03,56,3.50
2015,11,12,03,57,3.50
2015,11,12,03,58,3.50
2015,11,12,03,59,3.50
2015,11,12,04,00,3.60
2015,11,12,04,01,3.60
2015,11,12,04,02,3.60
2015,11,12,04,03,3.60
2015,11,12,04,04,3.60
2015,11,12,04,05,3.60
2015,11,12,04,06,3.60
2015,11,12,04,07,3.60
2015,11,12,04,08,3.60
2015,11,12,04,09,3.60
2015,11,12,04,10,3.60
2015,11,12,04,11,3.60
2015,11,12,04,12,3.70
2015,11,12,04,13,3.70
2015,11,12,04,14,3.70
2015,11,12,04,15,3.80
2015,11,12,04,16,3.80
2015,11,12,04,17,3.80
2015,11,12,04,18,3.80
2015,11,12,04,19,3.80
2015,11,12,04,20,3.80
2015,11,12,04,21,3.80
2015,11,12,04,22,3.80
2015,11,12,04,23,3.80
2015,11,12,04,24,3.80
2015,11,12,04,25,3.80
2015,11,12,04,26,3.80
2015,11,12,04,27,3.80
2015,11,12,04,28,3.80
2015,11,12,04,29,3.80
2015,11,12,04,30,3.80
2015,11,12,04,31,3.80
2015,11,12,04,32,3.80
2015,11,12,04,33,3.80
2015,11,12,04,34,3.90
2015,11,12,04,35,3.90
2015,11,12,04,36,3.90
2015,11,12,04,37,3.90
2015,11,12,04,38,3.90
2015,11,12,04,39,3.90
2015,11,12,04,40,3.90
2015,11,12,04,41,3.90
2015,11,12,04,42,3.90
2015,11,12,04,43,3.90
2015,11,12,04,44,3.90
2015,11,12,04,45,4.00
2015,11,12,04,46,4.00
2015,11,12,04,47,4.00
2015,11,12,04,48,4.00
2015,11,12,04,49,4.00
2015,11,12,04,50,4.10
2015,11,12,04,51,4.10
2015,11,12,04,52,4.10
2015,11,12,04,53,4.10
2015,11,12,04,54,4.10
2015,11,12,04,55,4.10
2015,11,12,04,56,4.10
2015,11,12,04,57,4.10
2015,11,12,04,58,4.10
2015,11,12,04,59,4.10
2015,11,12,05,00,4.10
2015,11,12,05,01,4.10
2015,11,12,05,02,4.20
2015,11,12,05,03,4.20
2015,11,12,05,04,4.20
2015,11,12,05,05,4.20
2015,11,12,05,06,4.20
2015,11,12,05,07,4.20
2015,11,12,05,08,4.20
2015,11,12,05,09,4.20
2015,11,12,05,10,4.20
2015,11,12,05,11,4.20
2015,11,12,05,12,4.20
2015,11,12,05,13,4.20
2015,11,12,05,14,4.20
2015,11,12,05,15,4.20
2015,11,12,05,16,4.30
2015,11,12,05,17,4.30
2015,11,12,05,18,4.30
2015,11,12,05,19,4.30
2015,11,12,05,20,4.30
2015,11,12,05,21,4.40
2015,11,12,05,22,4.40
2015,11,12,05,23,4.40
2015,11,12,05,24,4.40
2015,11,12,05,25,4.40
2015,11,12,05,26,4.40
2015,11,12,05,27,4.40
2015,11,12,05,28,4.40
2015,11,12,05,29,4.40
2015,11,12,05,30,4.40
2015,11,12,05,31,4.40
2015,11,12,05,32,4.40
2015,11,12,05,33,4.40
2015,11,12,05,34,4.40
2015,11,12,05,35,4.40
2015,11,12,05,36,4.40
2015,11,12,05,37,4.40
2015,11,12,05,38,4.40
2015,11,12,05,39,4.40
2015,11,12,05,40,4.40
2015,11,12,05,41,4.40
2015,11,12,05,42,4.50
2015,11,12,05,43,4.50
2015,11,12,05,44,4.50
2015,11,12,05,45,4.50
2015,11,12,05,46,4.50
2015,11,12,05,47,4.50
2015,11,12,05,48,4.50
2015,11,12,05,49,4.50
2015,11,12,05,50,4.50
2015,11,12,05,51,4.50
2015,11,12,05,52,4.60
2015,11,12,05,53,4.60
2015,11,12,05,54,4.60
2015,11,12,05,55,4.60
2015,11,12,05,56,4.60
2015,11,12,05,57,4.60
2015,11,12,05,58,4.60
2015,11,12,05,59,4.60
2015,11,12,06,00,4.60
2015,11,12,06,01,4.60
2015,11,12,06,02,4.70
2015,11,12,06,03,4.70
2015,11,12,06,04,4.70
2015,11,12,06,05,4.70
2015,11,12,06,06,4.70
2015,11,12,06,07,4.70
2015,11,12,06,08,4.70
2015,11,12,06,09,4.70
2015,11,12,06,10,4.70
2015,11,12,06,11,4.70
2015,11,12,06,12,4.70
2015,11,12,06,13,4.70
2015,11,12,06,14,4.70
2015,11,12,06,15,4.70
2015,11,12,06,16,4.70
2015,11,12,06,17,4.70
2015,11,12,06,18,4.70
2015,11,12,06,19,4.70
2015,11,12,06,20,4.70
2015,11,12,06,21,4.70
2015,11,12,06,22,4.70
2015,11,12,06,23,4.70
2015,11,12,06,24,4.70
2015,11,12,06,25,4.70
2015,11,12,06,26,4.70
2015,11,12,06,27,4.70
2015,11,12,06,28,4.80
2015,11,12,06,29,4.80
2015,11,12,06,30,4.80
2015,11,12,06,31,4.80
2015,11,12,06,32,4.80
2015,11,12,06,33,4.80
2015,11,12,06,34,4.80
2015,11,12,06,35,4.80
2015,11,12,06,36,4.80
2015,11,12,06,37,4.80
2015,11,12,06,38,4.80
2015,11,12,06,39,4.80
2015,11,12,06,40,4.80
2015,11,12,06,41,4.80
2015,11,12,06,42,4.80
2015,11,12,06,43,4.90
2015,11,12,06,44,4.90
2015,11,12,06,45,4.90
2015,11,12,06,46,4.90
2015,11,12,06,47,4.90
2015,11,12,06,48,4.90
2015,11,12,06,49,4.90
2015,11,12,06,50,4.90
2015,11,12,06,51,4.90
2015,11,12,06,52,4.90
2015,11,12,06,53,4.90
2015,11,12,06,54,4.90
2015,11,12,06,55,4.90
2015,11,12,06,56,4.90
2015,11,12,06,57,4.90
2015,11,12,06,58,4.90
2015,11,12,06,59,4.90
2015,11,12,07,00,4.90
2015,11,12,07,01,4.90
2015,11,12,07,02,4.90
2015,11,12,07,03,4.90
2015,11,12,07,04,4.90
2015,11,12,07,05,4.90
2015,11,12,07,06,4.90
2015,11,12,07,07,4.90
2015,11,12,07,08,5.00
2015,11,12,07,09,5.10
2015,11,12,07,10,5.10
2015,11,12,07,11,5.10
2015,11,12,07,12,5.10
2015,11,12,07,13,5.10
2015,11,12,07,14,5.10
2015,11,12,07,15,5.10
2015,11,12,07,16,5.10
2015,11,12,07,17,5.10
2015,11,12,07,18,5.10
2015,11,12,07,19,5.10
2015,11,12,07,20,5.10
2015,11,12,07,21,5.10
2015,11,12,07,22,5.10
2015,11,12,07,23,5.10
2015,11,12,07,24,5.10
2015,11,12,07,25,5.10
2015,11,12,07,26,5.10
2015,11,12,07,27,5.10
2015,11,12,07,28,5.10
2015,11,12,07,29,5.10
2015,11,12,07,30,5.10
2015,11,12,07,31,5.10
2015,11,12,07,32,5.10
2015,11,12,07,33,5.10
2015,11,12,07,34,5.10
2015,11,12,07,35,5.10
2015,11,12,07,36,5.10
2015,11,12,07,37,5.10
2015,11,12,07,38,5.10
2015,11,12,07,39,5.10
2015,11,12,07,40,5.10
2015,11,12,07,41,5.10
2015,11,12,07,42,5.10
2015,11,12,07,43,5.10
2015,11,12,07,44,5.10
2015,11,12,07,45,5.10
2015,11,12,07,46,5.10
2015,11,12,07,47,5.10
2015,11,12,07,48,5.10
2015,11,12,07,49,5.10
2015,11,12,07,50,5.10
2015,11,12,07,51,5.10
2015,11,12,07,52,5.10
2015,11,12,07,53,5.10
2015,11,12,07,54,5.10
2015,11,12,07,55,5.10
2015,11,12,07,56,5.10
2015,11,12,07,57,5.10
2015,11,12,07,58,5.10
2015,11,12,07,59,5.10
2015,11,12,08,00,5.10
2015,11,12,08,01,5.20
2015,11,12,08,02,5.20
2015,11,12,08,03,5.20
2015,11,12,08,04,5.20
2015,11,12,08,05,5.20
2015,11,12,08,06,5.20
2015,11,12,08,07,5.20
2015,11,12,08,08,5.20
2015,11,12,08,09,5.30
2015,11,12,08,10,5.30
2015,11,12,08,11,5.30
2015,11,12,08,12,5.30
2015,11,12,08,13,5.30
2015,11,12,08,14,5.30
2015,11,12,08,15,5.30
2015,11,12,08,16,5.30
2015,11,12,08,17,5.30
2015,11,12,08,18,5.30
2015,11,12,08,19,5.30
2015,11,12,08,20,5.30
2015,11,12,08,21,5.30
2015,11,12,08,22,5.30
2015,11,12,08,23,5.30
2015,11,12,08,24,5.30
2015,11,12,08,25,5.30
2015,11,12,08,26,5.30
2015,11,12,08,27,5.30
2015,11,12,08,28,5.30
2015,11,12,08,29,5.30
2015,11,12,08,30,5.30
2015,11,12,08,31,5.30
2015,11,12,08,32,5.30
2015,11,12,08,33,5.30
2015,11,12,08,34,5.40
2015,11,12,08,35,5.40
2015,11,12,08,36,5.40
2015,11,12,08,37,5.40
2015,11,12,08,38,5.40
2015,11,12,08,39,5.40
2015,11,12,08,40,5.40
2015,11,12,08,41,5.40
2015,11,12,08,42,5.40
2015,11,12,08,43,5.40
2015,11,12,08,44,5.40
2015,11,12,08,45,5.40
2015,11,12,08,46,5.50
2015,11,12,08,47,5.50
2015,11,12,08,48,5.50
2015,11,12,08,49,5.50
2015,11,12,08,50,5.50
2015,11,12,08,51,5.50
2015,11,12,08,52,5.50
2015,11,12,08,53,5.50
2015,11,12,08,54,5.50
2015,11,12,08,55,5.50
2015,11,12,08,56,5.50
2015,11,12,08,57,5.50
2015,11,12,08,58,5.50
2015,11,12,08,59,5.50
2015,11,12,09,00,5.50
2015,11,12,09,01,5.60
2015,11,12,09,02,5.60
2015,11,12,09,03,5.60
2015,11,12,09,04,5.60
2015,11,12,09,05,5.60
2015,11,12,09,06,5.60
2015,11,12,09,07,5.60
2015,11,12,09,08,5.60
2015,11,12,09,09,5.60
2015,11,12,09,10,5.60
2015,11,12,09,11,5.60
2015,11,12,09,12,5.70
2015,11,12,09,13,5.70
2015,11,12,09,14,5.70
2015,11,12,09,15,5.70
2015,11,12,09,16,5.70
2015,11,12,09,17,5.70
2015,11,12,09,18,5.70
2015,11,12,09,19,5.70
2015,11,12,09,20,5.70
2015,11,12,09,21,5.70
2015,11,12,09,22,5.70
2015,11,12,09,23,5.70
2015,11,12,09,24,5.70
2015,11,12,09,25,5.70
2015,11,12,09,26,5.70
2015,11,12,09,27,5.70
2015,11,12,09,28,5.70
2015,11,12,09,29,5.70
2015,11,12,09,30,5.70
2015,11,12,09,31,5.70
2015,11,12,09,32,5.70
2015,11,12,09,33,5.70
2015,11,12,09,34,5.70
2015,11,12,09,35,5.70
2015,11,12,09,36,5.70
2015,11,12,09,37,5.70
2015,11,12,09,38,5.70
2015,11,12,09,39,5.70
2015,11,12,09,40,5.70
2015,11,12,09,41,5.70
2015,11,12,09,42,5.70
2015,11,12,09,43,5.70
2015,11,12,09,44,5.70
2015,11,12,09,45,5.70
2015,11,12,09,46,5.70
2015,11,12,09,47,5.70
2015,11,12,09,48,5.70
2015,11,12,09,49,5.70
2015,11,12,09,50,5.70
2015,11,12,09,51,5.70
2015,11,12,09,52,5.70
2015,11,12,09,53,5.70
2015,11,12,09,54,5.70
2015,11,12,09,55,5.70
2015,11,12,09,56,5.70
2015,11,12,09,57,5.70
2015,11,12,09,58,5.70
2015,11,12,09,59,5.70
2015,11,12,10,00,5.70
2015,11,12,10,01,5.70
2015,11,12,10,02,5.70
2015,11,12,10,03,5.70
2015,11,12,10,04,5.80
2015,11,12,10,05,5.80
2015,11,12,10,06,5.80
2015,11,12,10,07,5.80
2015,11,12,10,08,5.80
2015,11,12,10,09,5.80
2015,11,12,10,10,5.80
2015,11,12,10,11,5.80
2015,11,12,10,12,5.80
2015,11,12,10,13,5.80
2015,11,12,10,14,5.80
2015,11,12,10,15,5.80
2015,11,12,10,16,5.80
2015,11,12,10,17,5.80
2015,11,12,10,18,5.80
2015,11,12,10,19,5.80
2015,11,12,10,20,5.80
2015,11,12,10,21,5.80
2015,11,12,10,22,5.80
2015,11,12,10,23,5.80
2015,11,12,10,24,5.90
2015,11,12,10,25,5.90
2015,11,12,10,26,5.90
2015,11,12,10,27,5.90
2015,11,12,10,28,5.90
2015,11,12,10,29,5.90
2015,11,12,10,30,5.90
2015,11,12,10,31,5.90
2015,11,12,10,32,5.90
2015,11,12,10,33,5.90
2015,11,12,10,34,5.90
2015,11,12,10,35,5.90
2015,11,12,10,36,5.90
2015,11,12,10,37,5.90
2015,11,12,10,38,5.90
2015,11,12,10,39,5.90
2015,11,12,10,40,5.90
2015,11,12,10,41,5.90
2015,11,12,10,42,5.90
2015,11,12,10,43,5.90
2015,11,12,10,44,5.90
2015,11,12,10,45,5.90
2015,11,12,10,46,5.90
2015,11,12,10,47,5.90
2015,11,12,10,48,5.90
2015,11,12,10,49,5.90
2015,11,12,10,50,6.00
2015,11,12,10,51,6.00
2015,11,12,10,52,6.00
2015,11,12,10,53,6.00
2015,11,12,10,54,6.00
2015,11,12,10,55,6.00
2015,11,12,10,56,6.00
2015,11,12,10,57,6.00
2015,11,12,10,58,6.00
2015,11,12,10,59,6.00
2015,11,12,11,00,6.00
2015,11,12,11,01,6.00
2015,11,12,11,02,6.00
2015,11,12,11,03,6.00
2015,11,12,11,04,6.00
2015,11,12,11,05,6.00
2015,11,12,11,06,6.00
2015,11,12,11,07,6.00
2015,11,12,11,08,6.00
2015,11,12,11,09,6.00
2015,11,12,11,10,6.00
2015,11,12,11,11,6.00
2015,11,12,11,12,6.00
2015,11,12,11,13,6.00
2015,11,12,11,14,6.00
2015,11,12,11,15,6.00
2015,11,12,11,16,6.00
2015,11,12,11,17,6.00
2015,11,12,11,18,6.00
2015,11,12,11,19,6.00
2015,11,12,11,20,6.10
2015,11,12,11,21,6.10
2015,11,12,11,22,6.10
2015,11,12,11,23,6.10
2015,11,12,11,24,6.10
2015,11,12,11,25,6.10
2015,11,12,11,26,6.10
2015,11,12,11,27,6.10
2015,11,12,11,28,6.10
2015,11,12,11,29,6.10
2015,11,12,11,30,6.10
2015,11,12,11,31,6.10
2015,11,12,11,32,6.10
2015,11,12,11,33,6.10
2015,11,12,11,34,6.10
2015,11,12,11,35,6.10
2015,11,12,11,36,6.10
2015,11,12,11,37,6.10
2015,11,12,11,38,6.20
2015,11,12,11,39,6.20
2015,11,12,11,40,6.20
2015,11,12,11,41,6.20
2015,11,12,11,42,6.20
2015,11,12,11,43,6.20
2015,11,12,11,44,6.20
2015,11,12,11,45,6.20
2015,11,12,11,46,6.20
2015,11,12,11,47,6.20
2015,11,12,11,48,6.20
2015,11,12,11,49,6.20
2015,11,12,11,50,6.20
2015,11,12,11,51,6.20
2015,11,12,11,52,6.20
2015,11,12,11,53,6.20
2015,11,12,11,54,6.20
2015,11,12,11,55,6.20
2015,11,12,11,56,6.20
2015,11,12,11,57,6.20
2015,11,12,11,58,6.20
2015,11,12,11,59,6.20
2015,11,12,12,00,6.20
2015,11,12,12,01,6.20
2015,11,12,12,02,6.20
2015,11,12,12,03,6.20
2015,11,12,12,04,6.20
2015,11,12,12,05,6.20
2015,11,12,12,06,6.20
2015,11,12,12,07,6.20
2015,11,12,12,08,6.20
2015,11,12,12,09,6.30
2015,11,12,12,10,6.30
2015,11,12,12,11,6.30
2015,11,12,12,12,6.30
2015,11,12,12,13,6.30
2015,11,12,12,14,6.30
2015,11,12,12,15,6.30
2015,11,12,12,16,6.30
2015,11,12,12,17,6.30
2015,11,12,12,18,6.30
2015,11,12,12,19,6.40
2015,11,12,12,20,6.40
2015,11,12,12,21,6.40
2015,11,12,12,22,6.40
2015,11,12,12,23,6.40
2015,11,12,12,24,6.40
2015,11,12,12,25,6.40
2015,11,12,12,26,6.40
2015,11,12,12,27,6.40
2015,11,12,12,28,6.40
2015,11,12,12,29,6.40
2015,11,12,12,30,6.40
2015,11,12,12,31,6.50
2015,11,12,12,32,6.60
2015,11,12,12,33,6.60
2015,11,12,12,34,6.60
2015,11,12,12,35,6.60
2015,11,12,12,36,6.60
2015,11,12,12,37,6.60
2015,11,12,12,38,6.60
2015,11,12,12,39,6.60
2015,11,12,12,40,6.60
2015,11,12,12,41,6.60
2015,11,12,12,42,6.60
2015,11,12,12,43,6.70
2015,11,12,12,44,6.70
2015,11,12,12,45,6.70
2015,11,12,12,46,6.70
2015,11,12,12,47,6.70
2015,11,12,12,48,6.70
2015,11,12,12,49,6.80
2015,11,12,12,50,6.80
2015,11,12,12,51,6.80
2015,11,12,12,52,6.80
2015,11,12,12,53,6.80
2015,11,12,12,54,6.80
2015,11,12,12,55,6.80
2015,11,12,12,56,6.80
2015,11,12,12,57,6.80
2015,11,12,12,58,6.80
2015,11,12,12,59,6.90
2015,11,12,13,00,6.90
2015,11,12,13,01,6.90
2015,11,12,13,02,6.90
2015,11,12,13,03,6.90
2015,11,12,13,04,7.00
2015,11,12,13,05,7.00
2015,11,12,13,06,7.00
2015,11,12,13,07,7.00
2015,11,12,13,08,7.00
2015,11,12,13,09,7.00
2015,11,12,13,10,7.00
2015,11,12,13,11,7.00
2015,11,12,13,12,7.10
2015,11,12,13,13,7.10
2015,11,12,13,14,7.10
2015,11,12,13,15,7.10
2015,11,12,13,16,7.10
2015,11,12,13,17,7.10
2015,11,12,13,18,7.10
2015,11,12,13,19,7.10
2015,11,12,13,20,7.10
2015,11,12,13,21,7.10
2015,11,12,13,22,7.20
2015,11,12,13,23,7.20
2015,11,12,13,24,7.20
2015,11,12,13,25,7.20
2015,11,12,13,26,7.20
2015,11,12,13,27,7.20
2015,11,12,13,28,7.20
2015,11,12,13,29,7.20
2015,11,12,13,30,7.30
2015,11,12,13,31,7.30
2015,11,12,13,32,7.30
2015,11,12,13,33,7.30
2015,11,12,13,34,7.30
2015,11,12,13,35,7.30
2015,11,12,13,36,7.30
2015,11,12,13,37,7.30
2015,11,12,13,38,7.30
2015,11,12,13,39,7.30
2015,11,12,13,40,7.30
2015,11,12,13,41,7.30
2015,11,12,13,42,7.30
2015,11,12,13,43,7.30
2015,11,12,13,44,7.30
2015,11,12,13,45,7.30
2015,11,12,13,46,7.30
2015,11,12,13,47,7.30
2015,11,12,13,48,7.30
2015,11,12,13,49,7.30
2015,11,12,13,50,7.30
2015,11,12,13,51,7.30
2015,11,12,13,52,7.30
2015,11,12,13,53,7.40
2015,11,12,13,54,7.40
2015,11,12,13,55,7.40
2015,11,12,13,56,7.40
2015,11,12,13,57,7.40
2015,11,12,13,58,7.40
2015,11,12,13,59,7.40
2015,11,12,14,00,7.40
2015,11,12,14,01,7.40
2015,11,12,14,02,7.40
2015,11,12,14,03,7.50
2015,11,12,14,04,7.50
2015,11,12,14,05,7.50
2015,11,12,14,06,7.50
2015,11,12,14,07,7.50
2015,11,12,14,08,7.50
2015,11,12,14,09,7.50
2015,11,12,14,10,7.50
2015,11,12,14,11,7.50
2015,11,12,14,12,7.60
2015,11,12,14,13,7.60
2015,11,12,14,14,7.60
2015,11,12,14,15,7.60
2015,11,12,14,16,7.60
2015,11,12,14,17,7.60
2015,11,12,14,18,7.60
2015,11,12,14,19,7.60
2015,11,12,14,20,7.60
2015,11,12,14,21,7.60
2015,11,12,14,22,7.60
2015,11,12,14,23,7.60
2015,11,12,14,24,7.60
2015,11,12,14,25,7.60
2015,11,12,14,26,7.60
2015,11,12,14,27,7.60
2015,11,12,14,28,7.60
2015,11,12,14,29,7.60
2015,11,12,14,30,7.60
2015,11,12,14,31,7.60
2015,11,12,14,32,7.60
2015,11,12,14,33,7.60
2015,11,12,14,34,7.60
2015,11,12,14,35,7.60
2015,11,12,14,36,7.60
2015,11,12,14,37,7.60
2015,11,12,14,38,7.60
2015,11,12,14,39,7.60
2015,11,12,14,40,7.60
2015,11,12,14,41,7.60
2015,11,12,14,42,7.60
2015,11,12,14,43,7.60
2015,11,12,14,44,7.60
2015,11,12,14,45,7.60
2015,11,12,14,46,7.60
2015,11,12,14,47,7.60
2015,11,12,14,48,7.60
2015,11,12,14,49,7.60
2015,11,12,14,50,7.60
2015,11,12,14,51,7.60
2015,11,12,14,52,7.60
2015,11,12,14,53,7.60
2015,11,12,14,54,7.60
2015,11,12,14,55,7.60
2015,11,12,14,56,7.60
2015,11,12,14,57,7.60
2015,11,12,14,58,7.60
2015,11,12,14,59,7.60
2015,11,12,15,00,7.60
2015,11,12,15,01,7.60
2015,11,12,15,02,7.60
2015,11,12,15,03,7.60
2015,11,12,15,04,7.60
2015,11,12,15,05,7.60
2015,11,12,15,06,7.60
2015,11,12,15,07,7.60
2015,11,12,15,08,7.60
2015,11,12,15,09,7.60
2015,11,12,15,10,7.60
2015,11,12,15,11,7.50
2015,11,12,15,12,7.50
2015,11,12,15,13,7.50
2015,11,12,15,14,7.50
2015,11,12,15,15,7.50
2015,11,12,15,16,7.50
2015,11,12,15,17,7.50
2015,11,12,15,18,7.50
2015,11,12,15,19,7.50
2015,11,12,15,20,7.50
2015,11,12,15,21,7.50
2015,11,12,15,22,7.50
2015,11,12,15,23,7.50
2015,11,12,15,24,7.50
2015,11,12,15,25,7.50
2015,11,12,15,26,7.50
2015,11,12,15,27,7.50
2015,11,12,15,28,7.50
2015,11,12,15,29,7.50
2015,11,12,15,30,7.50
2015,11,12,15,31,7.50
2015,11,12,15,32,7.50
2015,11,12,15,33,7.50
2015,11,12,15,34,7.50
2015,11,12,15,35,7.50
2015,11,12,15,36,7.50
2015,11,12,15,37,7.50
2015,11,12,15,38,7.50
2015,11,12,15,39,7.50
2015,11,12,15,40,7.50
2015,11,12,15,41,7.50
2015,11,12,15,42,7.50
2015,11,12,15,43,7.50
2015,11,12,15,44,7.50
2015,11,12,15,45,7.50
2015,11,12,15,46,7.50
2015,11,12,15,47,7.50
2015,11,12,15,48,7.50
2015,11,12,15,49,7.50
2015,11,12,15,50,7.40
2015,11,12,15,51,7.40
2015,11,12,15,52,7.40
2015,11,12,15,53,7.40
2015,11,12,15,54,7.40
2015,11,12,15,55,7.40
2015,11,12,15,56,7.40
2015,11,12,15,57,7.40
2015,11,12,15,58,7.40
2015,11,12,15,59,7.40
2015,11,12,16,00,7.40
2015,11,12,16,01,7.40
2015,11,12,16,02,7.40
2015,11,12,16,03,7.40
2015,11,12,16,04,7.40
2015,11,12,16,05,7.40
2015,11,12,16,06,7.40
2015,11,12,16,07,7.40
2015,11,12,16,08,7.40
2015,11,12,16,09,7.40
2015,11,12,16,10,7.40
2015,11,12,16,11,7.40
2015,11,12,16,12,7.40
2015,11,12,16,13,7.40
2015,11,12,16,14,7.40
2015,11,12,16,15,7.40
2015,11,12,16,16,7.40
2015,11,12,16,17,7.40
2015,11,12,16,18,7.40
2015,11,12,16,19,7.40
2015,11,12,16,20,7.40
2015,11,12,16,21,7.40
2015,11,12,16,22,7.40
2015,11,12,16,23,7.40
2015,11,12,16,24,7.40
2015,11,12,16,25,7.40
2015,11,12,16,26,7.40
2015,11,12,16,27,7.40
2015,11,12,16,28,7.40
2015,11,12,16,29,7.40
2015,11,12,16,30,7.40
2015,11,12,16,31,7.40
2015,11,12,16,32,7.40
2015,11,12,16,33,7.40
2015,11,12,16,34,7.40
2015,11,12,16,35,7.40
2015,11,12,16,36,7.40
2015,11,12,16,37,7.40
2015,11,12,16,38,7.40
2015,11,12,16,39,7.40
2015,11,12,16,40,7.40
2015,11,12,16,41,7.40
2015,11,12,16,42,7.40
2015,11,12,16,43,7.40
2015,11,12,16,44,7.40
2015,11,12,16,45,7.40
2015,11,12,16,46,7.40
2015,11,12,16,47,7.40
2015,11,12,16,48,7.40
2015,11,12,16,49,7.40
2015,11,12,16,50,7.40
2015,11,12,16,51,7.40
2015,11,12,16,52,7.40
2015,11,12,16,53,7.30
2015,11,12,16,54,7.30
2015,11,12,16,55,7.30
2015,11,12,16,56,7.30
2015,11,12,16,57,7.30
2015,11,12,16,58,7.30
2015,11,12,16,59,7.30
2015,11,12,17,00,7.30
2015,11,12,17,01,7.30
2015,11,12,17,02,7.30
2015,11,12,17,03,7.30
2015,11,12,17,04,7.30
2015,11,12,17,05,7.30
2015,11,12,17,06,7.30
2015,11,12,17,07,7.30
2015,11,12,17,08,7.30
2015,11,12,17,09,7.30
2015,11,12,17,10,7.30
2015,11,12,17,11,7.30
2015,11,12,17,12,7.30
2015,11,12,17,13,7.30
2015,11,12,17,14,7.30
2015,11,12,17,15,7.30
2015,11,12,17,16,7.30
2015,11,12,17,17,7.30
2015,11,12,17,18,7.30
2015,11,12,17,19,7.30
2015,11,12,17,20,7.30
2015,11,12,17,21,7.30
2015,11,12,17,22,7.30
2015,11,12,17,23,7.30
2015,11,12,17,24,7.30
2015,11,12,17,25,7.30
2015,11,12,17,26,7.30
2015,11,12,17,27,7.30
2015,11,12,17,28,7.30
2015,11,12,17,29,7.30
2015,11,12,17,30,7.30
2015,11,12,17,31,7.30
2015,11,12,17,32,7.30
2015,11,12,17,33,7.30
2015,11,12,17,34,7.40
2015,11,12,17,35,7.40
2015,11,12,17,36,7.40
2015,11,12,17,37,7.40
2015,11,12,17,38,7.40
2015,11,12,17,39,7.40
2015,11,12,17,40,7.40
2015,11,12,17,41,7.40
2015,11,12,17,42,7.40
2015,11,12,17,43,7.40
2015,11,12,17,44,7.40
2015,11,12,17,45,7.40
2015,11,12,17,46,7.40
2015,11,12,17,47,7.50
2015,11,12,17,48,7.50
2015,11,12,17,49,7.50
2015,11,12,17,50,7.50
2015,11,12,17,51,7.50
2015,11,12,17,52,7.50
2015,11,12,17,53,7.50
2015,11,12,17,54,7.50
2015,11,12,17,55,7.50
2015,11,12,17,56,7.50
2015,11,12,17,57,7.50
2015,11,12,17,58,7.50
2015,11,12,17,59,7.50
2015,11,12,18,00,7.50
2015,11,12,18,01,7.50
2015,11,12,18,02,7.50
2015,11,12,18,03,7.50
2015,11,12,18,04,7.50
2015,11,12,18,05,7.50
2015,11,12,18,06,7.50